Time,TemperatureF,DewpointF,PressureIn,WindDirection,WindDirectionDegrees,WindSpeedMPH,WindSpeedGustMPH,Humidity,HourlyPrecipIn,Conditions,Clouds,dailyrainin,SoftwareType,DateUTC
2013-08-15 00:00:00,60.8,51.3,29.96,West,271,0.0,0.0,71,0.00,,,0.00,WeatherCatV1.15B25,2013-08-15 04:00:00,
2013-08-15 00:01:00,60.8,51.3,29.96,West,274,0.0,1.0,71,0.00,,,0.00,WeatherCatV1.15B25,2013-08-15 04:01:00,
2013-08-15 00:02:00,60.7,51.2,29.96,West,274,0.0,1.0,71,0.00,,,0.00,WeatherCatV1.15B25,2013-08-15 04:02:00,
2013-08-15 00:03:00,60.7,51.2,29.96,West,274,0.0,1.0,71,0.00,,,0.00,WeatherCatV1.15B25,2013-08-15 04:03:00,
2013-08-15 00:08:00,60.6,51.1,29.96,West,275,0.0,0.0,71,0.00,,,0.00,WeatherCatV1.15B25,2013-08-15 04:08:00,
2013-08-15 00:13:00,60.4,51.3,29.97,WNW,287,0.0,1.0,72,0.00,,,0.00,WeatherCatV1.15B25,2013-08-15 04:13:00,
2013-08-15 00:18:00,60.3,51.2,29.97,NNW,331,0.0,1.0,72,0.00,,,0.00,WeatherCatV1.15B25,2013-08-15 04:18:00,
2013-08-15 00:23:00,60.0,51.3,29.97,ENE,67,0.0,1.0,73,0.00,,,0.00,WeatherCatV1.15B25,2013-08-15 04:23:00,
2013-08-15 00:28:00,59.8,51.1,29.97,West,281,0.0,0.0,73,0.00,,,0.00,WeatherCatV1.15B25,2013-08-15 04:28:00,
2013-08-15 00:33:00,59.5,51.2,29.97,WNW,285,0.0,1.0,74,0.00,,,0.00,WeatherCatV1.15B25,2013-08-15 04:33:00,
2013-08-15 00:38:00,59.4,51.1,29.97,WNW,285,0.0,0.0,74,0.00,,,0.00,WeatherCatV1.15B25,2013-08-15 04:38:00,
2013-08-15 00:43:00,59.3,51.0,29.97,WNW,285,0.0,0.0,74,0.00,,,0.00,WeatherCatV1.15B25,2013-08-15 04:43:00,
2013-08-15 00:48:00,59.0,51.1,29.97,WNW,285,0.0,1.0,75,0.00,,,0.00,WeatherCatV1.15B25,2013-08-15 04:48:00,
2013-08-15 00:53:00,58.9,51.3,29.98,WNW,285,1.0,1.0,76,0.00,,,0.00,WeatherCatV1.15B25,2013-08-15 04:53:00,
2013-08-15 00:58:00,59.1,51.2,29.98,WNW,288,0.0,1.0,75,0.00,,,0.00,WeatherCatV1.15B25,2013-08-15 04:58:00,
2013-08-15 01:03:00,59.0,51.1,29.98,WNW,288,0.0,1.0,75,0.00,,,0.00,WeatherCatV1.15B25,2013-08-15 05:03:00,
2013-08-15 01:08:00,58.8,51.2,29.98,WNW,289,0.0,0.0,76,0.00,,,0.00,WeatherCatV1.15B25,2013-08-15 05:08:00,
2013-08-15 01:13:00,58.6,51.1,29.98,WNW,289,0.0,0.0,76,0.00,,,0.00,WeatherCatV1.15B25,2013-08-15 05:13:00,
2013-08-15 01:18:00,58.2,51.0,29.98,WNW,289,0.0,0.0,77,0.00,,,0.00,WeatherCatV1.15B25,2013-08-15 05:18:00,
2013-08-15 01:23:00,57.8,51.0,29.98,WNW,289,0.0,0.0,78,0.00,,,0.00,WeatherCatV1.15B25,2013-08-15 05:23:00,
2013-08-15 01:28:00,57.5,51.0,29.98,WNW,289,0.0,0.0,79,0.00,,,0.00,WeatherCatV1.15B25,2013-08-15 05:28:00,
2013-08-15 01:33:00,57.2,50.7,29.98,WNW,295,0.0,0.0,79,0.00,,,0.00,WeatherCatV1.15B25,2013-08-15 05:33:00,
2013-08-15 01:38:00,57.2,51.1,29.98,WNW,295,0.0,0.0,80,0.00,,,0.00,WeatherCatV1.15B25,2013-08-15 05:38:00,
2013-08-15 01:43:00,57.1,51.0,29.98,WNW,295,0.0,0.0,80,0.00,,,0.00,WeatherCatV1.15B25,2013-08-15 05:43:00,
2013-08-15 01:48:00,57.0,50.9,29.98,WNW,295,0.0,0.0,80,0.00,,,0.00,WeatherCatV1.15B25,2013-08-15 05:48:00,
2013-08-15 01:53:00,56.8,51.0,29.98,WNW,295,0.0,0.0,81,0.00,,,0.00,WeatherCatV1.15B25,2013-08-15 05:53:00,
2013-08-15 01:58:00,56.5,50.7,29.98,WNW,295,0.0,0.0,81,0.00,,,0.00,WeatherCatV1.15B25,2013-08-15 05:58:00,
2013-08-15 02:03:00,56.4,51.0,29.98,WNW,295,0.0,0.0,82,0.00,,,0.00,WeatherCatV1.15B25,2013-08-15 06:03:00,
2013-08-15 02:08:00,56.3,50.9,29.99,WNW,295,0.0,0.0,82,0.00,,,0.00,WeatherCatV1.15B25,2013-08-15 06:08:00,
2013-08-15 02:13:00,56.2,51.1,29.99,WNW,295,0.0,0.0,83,0.00,,,0.00,WeatherCatV1.15B25,2013-08-15 06:13:00,
2013-08-15 02:18:00,56.1,51.0,29.99,WNW,295,0.0,0.0,83,0.00,,,0.00,WeatherCatV1.15B25,2013-08-15 06:18:00,
2013-08-15 02:23:00,56.0,50.9,29.99,WNW,295,0.0,0.0,83,0.00,,,0.00,WeatherCatV1.15B25,2013-08-15 06:23:00,
2013-08-15 02:28:00,55.8,51.0,29.99,WNW,295,0.0,0.0,84,0.00,,,0.00,WeatherCatV1.15B25,2013-08-15 06:28:00,
2013-08-15 02:33:00,55.6,50.8,29.99,WNW,295,0.0,0.0,84,0.00,,,0.00,WeatherCatV1.15B25,2013-08-15 06:33:00,
2013-08-15 02:38:00,55.4,51.0,29.99,WNW,295,0.0,0.0,85,0.00,,,0.00,WeatherCatV1.15B25,2013-08-15 06:38:00,
2013-08-15 02:43:00,55.3,50.9,29.99,WNW,295,0.0,0.0,85,0.00,,,0.00,WeatherCatV1.15B25,2013-08-15 06:43:00,
2013-08-15 02:48:00,55.2,50.8,29.99,WNW,295,0.0,0.0,85,0.00,,,0.00,WeatherCatV1.15B25,2013-08-15 06:48:00,
2013-08-15 02:53:00,55.1,50.7,29.99,WNW,295,0.0,0.0,85,0.00,,,0.00,WeatherCatV1.15B25,2013-08-15 06:53:00,
2013-08-15 02:58:00,54.9,50.8,30.00,WNW,295,0.0,0.0,86,0.00,,,0.00,WeatherCatV1.15B25,2013-08-15 06:58:00,
2013-08-15 03:03:00,54.8,50.7,30.00,WNW,295,0.0,0.0,86,0.00,,,0.00,WeatherCatV1.15B25,2013-08-15 07:03:00,
2013-08-15 03:08:00,54.7,50.9,30.00,WNW,295,0.0,0.0,87,0.00,,,0.01,WeatherCatV1.15B25,2013-08-15 07:08:00,
2013-08-15 03:13:00,54.9,51.1,30.00,WNW,294,0.0,0.0,87,0.00,,,0.01,WeatherCatV1.15B25,2013-08-15 07:13:00,
2013-08-15 03:18:00,55.2,51.1,30.00,WNW,294,0.0,0.0,86,0.00,,,0.01,WeatherCatV1.15B25,2013-08-15 07:18:00,
2013-08-15 03:23:00,55.4,51.3,30.00,WNW,294,0.0,0.0,86,0.00,,,0.01,WeatherCatV1.15B25,2013-08-15 07:23:00,
2013-08-15 03:28:00,55.3,51.2,30.00,WNW,294,0.0,0.0,86,0.00,,,0.01,WeatherCatV1.15B25,2013-08-15 07:28:00,
2013-08-15 03:33:00,55.2,51.1,30.00,WNW,293,0.0,0.0,86,0.00,,,0.01,WeatherCatV1.15B25,2013-08-15 07:33:00,
2013-08-15 03:38:00,54.9,51.1,30.00,WNW,294,0.0,0.0,87,0.00,,,0.01,WeatherCatV1.15B25,2013-08-15 07:38:00,
2013-08-15 03:43:00,54.9,51.1,30.00,WNW,294,0.0,0.0,87,0.00,,,0.01,WeatherCatV1.15B25,2013-08-15 07:43:00,
2013-08-15 03:48:00,54.7,50.9,30.01,WNW,293,0.0,0.0,87,0.00,,,0.01,WeatherCatV1.15B25,2013-08-15 07:48:00,
2013-08-15 03:53:00,54.5,50.7,30.01,WNW,294,0.0,0.0,87,0.00,,,0.01,WeatherCatV1.15B25,2013-08-15 07:53:00,
2013-08-15 03:58:00,54.3,50.8,30.01,WNW,294,0.0,0.0,88,0.00,,,0.01,WeatherCatV1.15B25,2013-08-15 07:58:00,
2013-08-15 04:03:00,54.2,50.7,30.01,WNW,294,0.0,0.0,88,0.00,,,0.01,WeatherCatV1.15B25,2013-08-15 08:03:00,
2013-08-15 04:08:00,53.9,50.4,30.01,WNW,294,0.0,0.0,88,0.00,,,0.01,WeatherCatV1.15B25,2013-08-15 08:08:00,
2013-08-15 04:13:00,53.8,50.6,30.01,WNW,294,0.0,0.0,89,0.00,,,0.01,WeatherCatV1.15B25,2013-08-15 08:13:00,
2013-08-15 04:18:00,53.6,50.4,30.01,WNW,294,0.0,0.0,89,0.00,,,0.01,WeatherCatV1.15B25,2013-08-15 08:18:00,
2013-08-15 04:23:00,53.4,50.2,30.01,WNW,294,0.0,0.0,89,0.00,,,0.01,WeatherCatV1.15B25,2013-08-15 08:23:00,
2013-08-15 04:28:00,53.3,50.4,30.01,WNW,294,0.0,0.0,90,0.00,,,0.01,WeatherCatV1.15B25,2013-08-15 08:28:00,
2013-08-15 04:33:00,53.2,50.3,30.01,WNW,294,0.0,0.0,90,0.00,,,0.01,WeatherCatV1.15B25,2013-08-15 08:33:00,
2013-08-15 04:38:00,53.1,50.5,30.01,WNW,293,0.0,0.0,91,0.00,,,0.01,WeatherCatV1.15B25,2013-08-15 08:38:00,
2013-08-15 04:43:00,53.0,50.4,30.02,WNW,294,0.0,0.0,91,0.00,,,0.01,WeatherCatV1.15B25,2013-08-15 08:43:00,
2013-08-15 04:48:00,53.0,50.4,30.02,WNW,293,0.0,0.0,91,0.00,,,0.01,WeatherCatV1.15B25,2013-08-15 08:48:00,
2013-08-15 04:53:00,52.9,50.3,30.02,WNW,294,0.0,0.0,91,0.00,,,0.01,WeatherCatV1.15B25,2013-08-15 08:53:00,
2013-08-15 04:58:00,52.9,50.3,30.02,WNW,294,0.0,0.0,91,0.00,,,0.01,WeatherCatV1.15B25,2013-08-15 08:58:00,
2013-08-15 05:03:00,52.8,50.2,30.02,WNW,293,0.0,0.0,91,0.00,,,0.01,WeatherCatV1.15B25,2013-08-15 09:03:00,
2013-08-15 05:08:00,52.9,50.3,30.02,WNW,294,0.0,0.0,91,0.00,,,0.01,WeatherCatV1.15B25,2013-08-15 09:08:00,
2013-08-15 05:13:00,52.8,50.5,30.03,WNW,294,0.0,0.0,92,0.00,,,0.01,WeatherCatV1.15B25,2013-08-15 09:13:00,
2013-08-15 05:18:00,52.9,50.6,30.03,WNW,294,0.0,0.0,92,0.00,,,0.01,WeatherCatV1.15B25,2013-08-15 09:18:00,
2013-08-15 05:23:00,52.9,50.6,30.03,WNW,294,0.0,0.0,92,0.00,,,0.01,WeatherCatV1.15B25,2013-08-15 09:23:00,
2013-08-15 05:28:00,52.8,50.2,30.03,WNW,294,0.0,0.0,91,0.00,,,0.01,WeatherCatV1.15B25,2013-08-15 09:28:00,
2013-08-15 05:33:00,52.7,50.4,30.03,WNW,294,0.0,0.0,92,0.00,,,0.01,WeatherCatV1.15B25,2013-08-15 09:33:00,
2013-08-15 05:38:00,52.7,50.4,30.04,WNW,294,0.0,0.0,92,0.00,,,0.01,WeatherCatV1.15B25,2013-08-15 09:38:00,
2013-08-15 05:43:00,52.9,50.6,30.04,WNW,289,0.0,1.0,92,0.00,,,0.01,WeatherCatV1.15B25,2013-08-15 09:43:00,
2013-08-15 05:44:00,53.1,50.8,30.04,WNW,289,0.0,1.0,92,0.00,,,0.01,WeatherCatV1.15B25,2013-08-15 09:44:00,
2013-08-15 05:49:00,53.3,50.7,30.04,WNW,289,0.0,0.0,91,0.00,,,0.01,WeatherCatV1.15B25,2013-08-15 09:49:00,
2013-08-15 05:54:00,53.4,50.8,30.05,WNW,289,0.0,0.0,91,0.00,,,0.01,WeatherCatV1.15B25,2013-08-15 09:54:00,
2013-08-15 05:59:00,53.5,50.6,30.05,WNW,289,0.0,0.0,90,0.00,,,0.01,WeatherCatV1.15B25,2013-08-15 09:59:00,
2013-08-15 06:04:00,53.4,50.5,30.05,WNW,289,0.0,0.0,90,0.00,,,0.01,WeatherCatV1.15B25,2013-08-15 10:04:00,
2013-08-15 06:09:00,53.3,50.4,30.05,WNW,289,0.0,0.0,90,0.00,,,0.01,WeatherCatV1.15B25,2013-08-15 10:09:00,
2013-08-15 06:14:00,53.2,50.3,30.05,WNW,289,0.0,0.0,90,0.00,,,0.01,WeatherCatV1.15B25,2013-08-15 10:14:00,
2013-08-15 06:19:00,53.1,50.2,30.05,WNW,289,0.0,0.0,90,0.00,,,0.01,WeatherCatV1.15B25,2013-08-15 10:19:00,
2013-08-15 06:24:00,53.0,50.1,30.05,WNW,289,0.0,0.0,90,0.00,,,0.01,WeatherCatV1.15B25,2013-08-15 10:24:00,
2013-08-15 06:26:00,52.9,50.3,30.05,WNW,289,0.0,0.0,91,0.00,,,0.01,WeatherCatV1.15B25,2013-08-15 10:26:00,
2013-08-15 06:31:00,52.8,50.2,30.06,WNW,289,0.0,0.0,91,0.00,,,0.01,WeatherCatV1.15B25,2013-08-15 10:31:00,
2013-08-15 06:36:00,53.0,50.7,30.06,WNW,289,0.0,0.0,92,0.00,,,0.01,WeatherCatV1.15B25,2013-08-15 10:36:00,
2013-08-15 06:41:00,53.4,50.8,30.06,WNW,289,0.0,0.0,91,0.00,,,0.01,WeatherCatV1.15B25,2013-08-15 10:41:00,
2013-08-15 06:46:00,53.7,50.8,30.06,WNW,289,0.0,0.0,90,0.00,,,0.01,WeatherCatV1.15B25,2013-08-15 10:46:00,
2013-08-15 06:51:00,54.0,50.8,30.06,WNW,293,0.0,1.0,89,0.00,,,0.01,WeatherCatV1.15B25,2013-08-15 10:51:00,
2013-08-15 06:56:00,54.3,50.8,30.06,WNW,283,0.0,1.0,88,0.00,,,0.01,WeatherCatV1.15B25,2013-08-15 10:56:00,
2013-08-15 07:01:00,54.7,50.9,30.07,NNW,330,0.0,1.0,87,0.00,,,0.01,WeatherCatV1.15B25,2013-08-15 11:01:00,
2013-08-15 07:06:00,55.0,50.9,30.07,NW,309,1.0,1.0,86,0.00,,,0.01,WeatherCatV1.15B25,2013-08-15 11:06:00,
2013-08-15 07:11:00,55.4,51.3,30.07,WNW,283,0.0,2.0,86,0.00,,,0.01,WeatherCatV1.15B25,2013-08-15 11:11:00,
2013-08-15 07:16:00,55.7,51.3,30.07,WNW,295,1.0,1.0,85,0.00,,,0.01,WeatherCatV1.15B25,2013-08-15 11:16:00,
2013-08-15 07:21:00,55.9,51.1,30.07,NW,309,0.0,1.0,84,0.00,,,0.01,WeatherCatV1.15B25,2013-08-15 11:21:00,
2013-08-15 07:26:00,56.2,51.4,30.07,WNW,295,0.0,1.0,84,0.00,,,0.01,WeatherCatV1.15B25,2013-08-15 11:26:00,
2013-08-15 07:31:00,56.7,51.6,30.07,NW,312,0.0,2.0,83,0.00,,,0.01,WeatherCatV1.15B25,2013-08-15 11:31:00,
2013-08-15 07:36:00,56.9,51.8,30.07,WNW,293,0.0,1.0,83,0.00,,,0.01,WeatherCatV1.15B25,2013-08-15 11:36:00,
2013-08-15 07:41:00,57.3,51.5,30.07,WNW,298,1.0,2.0,81,0.00,,,0.01,WeatherCatV1.15B25,2013-08-15 11:41:00,
2013-08-15 07:46:00,57.8,52.0,30.07,NW,307,0.0,2.0,81,0.00,,,0.01,WeatherCatV1.15B25,2013-08-15 11:46:00,
2013-08-15 07:51:00,58.2,52.1,30.07,North,356,0.0,4.0,80,0.00,,,0.01,WeatherCatV1.15B25,2013-08-15 11:51:00,
2013-08-15 07:56:00,58.5,52.0,30.07,West,273,0.0,2.0,79,0.00,,,0.01,WeatherCatV1.15B25,2013-08-15 11:56:00,
2013-08-15 08:01:00,58.8,52.3,30.07,West,266,0.0,0.0,79,0.00,,,0.02,WeatherCatV1.15B25,2013-08-15 12:01:00,
2013-08-15 08:06:00,59.1,52.2,30.07,WNW,300,2.0,2.0,78,0.00,,,0.02,WeatherCatV1.15B25,2013-08-15 12:06:00,
2013-08-15 08:11:00,59.5,52.6,30.07,WNW,288,0.0,1.0,78,0.00,,,0.02,WeatherCatV1.15B25,2013-08-15 12:11:00,
2013-08-15 08:16:00,59.8,52.2,30.07,WNW,283,1.0,4.0,76,0.00,,,0.02,WeatherCatV1.15B25,2013-08-15 12:16:00,
2013-08-15 08:21:00,60.1,52.1,30.07,WNW,287,1.0,5.0,75,0.00,,,0.02,WeatherCatV1.15B25,2013-08-15 12:21:00,
2013-08-15 08:26:00,60.4,52.1,30.07,NW,309,1.0,5.0,74,0.00,,,0.02,WeatherCatV1.15B25,2013-08-15 12:26:00,
2013-08-15 08:31:00,60.9,52.2,30.07,WNW,297,0.0,3.0,73,0.00,,,0.02,WeatherCatV1.15B25,2013-08-15 12:31:00,
2013-08-15 08:36:00,61.1,52.4,30.07,WNW,296,1.0,1.0,73,0.00,,,0.02,WeatherCatV1.15B25,2013-08-15 12:36:00,
2013-08-15 08:41:00,61.5,52.0,30.07,NNW,328,3.0,5.0,71,0.00,,,0.02,WeatherCatV1.15B25,2013-08-15 12:41:00,
2013-08-15 08:46:00,61.9,52.0,30.07,North,356,1.0,5.0,70,0.00,,,0.02,WeatherCatV1.15B25,2013-08-15 12:46:00,
2013-08-15 08:51:00,62.4,52.5,30.07,West,276,3.0,4.0,70,0.00,,,0.02,WeatherCatV1.15B25,2013-08-15 12:51:00,
2013-08-15 08:56:00,62.7,52.4,30.07,WNW,300,0.0,1.0,69,0.00,,,0.02,WeatherCatV1.15B25,2013-08-15 12:56:00,
2013-08-15 09:01:00,63.0,52.3,30.07,WNW,295,0.0,2.0,68,0.00,,,0.02,WeatherCatV1.15B25,2013-08-15 13:01:00,
2013-08-15 09:06:00,63.4,52.6,30.07,WSW,252,0.0,1.0,68,0.00,,,0.02,WeatherCatV1.15B25,2013-08-15 13:06:00,
2013-08-15 09:11:00,63.8,52.6,30.07,SE,146,0.0,3.0,67,0.00,,,0.02,WeatherCatV1.15B25,2013-08-15 13:11:00,
2013-08-15 09:16:00,64.1,52.1,30.07,NW,304,1.0,3.0,65,0.00,,,0.02,WeatherCatV1.15B25,2013-08-15 13:16:00,
2013-08-15 09:21:00,64.6,51.7,30.07,WNW,289,0.0,2.0,63,0.00,,,0.02,WeatherCatV1.15B25,2013-08-15 13:21:00,
2013-08-15 09:26:00,65.0,51.7,30.07,West,270,0.0,2.0,62,0.00,,,0.02,WeatherCatV1.15B25,2013-08-15 13:26:00,
2013-08-15 09:31:00,65.3,51.5,30.07,NW,308,0.0,3.0,61,0.00,,,0.02,WeatherCatV1.15B25,2013-08-15 13:31:00,
2013-08-15 09:36:00,65.5,51.7,30.07,NNW,343,1.0,2.0,61,0.00,,,0.02,WeatherCatV1.15B25,2013-08-15 13:36:00,
2013-08-15 09:41:00,66.0,51.7,30.07,WNW,296,2.0,7.0,60,0.00,,,0.02,WeatherCatV1.15B25,2013-08-15 13:41:00,
2013-08-15 09:46:00,66.0,51.7,30.07,NW,323,1.0,2.0,60,0.00,,,0.02,WeatherCatV1.15B25,2013-08-15 13:46:00,
2013-08-15 09:51:00,66.3,52.0,30.07,ESE,110,1.0,6.0,60,0.00,,,0.02,WeatherCatV1.15B25,2013-08-15 13:51:00,
2013-08-15 09:56:00,66.5,52.2,30.07,WNW,282,0.0,5.0,60,0.00,,,0.02,WeatherCatV1.15B25,2013-08-15 13:56:00,
2013-08-15 10:01:00,66.7,52.4,30.07,WNW,303,3.0,8.0,60,0.00,,,0.02,WeatherCatV1.15B25,2013-08-15 14:01:00,
2013-08-15 10:06:00,66.9,53.0,30.07,NW,307,2.0,2.0,61,0.00,,,0.02,WeatherCatV1.15B25,2013-08-15 14:06:00,
2013-08-15 10:11:00,67.4,53.5,30.07,NNW,341,0.0,3.0,61,0.00,,,0.02,WeatherCatV1.15B25,2013-08-15 14:11:00,
2013-08-15 10:16:00,67.6,52.8,30.07,NNW,338,3.0,4.0,59,0.00,,,0.02,WeatherCatV1.15B25,2013-08-15 14:16:00,
2013-08-15 10:21:00,67.8,52.9,30.07,WSW,255,0.0,6.0,59,0.00,,,0.02,WeatherCatV1.15B25,2013-08-15 14:21:00,
2013-08-15 10:26:00,68.4,54.0,30.07,North,11,1.0,3.0,60,0.00,,,0.02,WeatherCatV1.15B25,2013-08-15 14:26:00,
2013-08-15 10:31:00,68.6,53.7,30.07,North,355,2.0,3.0,59,0.00,,,0.02,WeatherCatV1.15B25,2013-08-15 14:31:00,
2013-08-15 10:36:00,68.9,52.1,30.07,WNW,286,2.0,4.0,55,0.00,,,0.02,WeatherCatV1.15B25,2013-08-15 14:36:00,
2013-08-15 10:41:00,69.4,52.5,30.07,West,260,1.0,2.0,55,0.00,,,0.02,WeatherCatV1.15B25,2013-08-15 14:41:00,
2013-08-15 10:46:00,70.0,51.0,30.07,NNW,337,3.0,6.0,51,0.00,,,0.02,WeatherCatV1.15B25,2013-08-15 14:46:00,
2013-08-15 10:51:00,70.1,51.6,30.07,WSW,248,0.0,2.0,52,0.00,,,0.02,WeatherCatV1.15B25,2013-08-15 14:51:00,
2013-08-15 10:56:00,70.8,52.3,30.07,West,281,2.0,3.0,52,0.00,,,0.02,WeatherCatV1.15B25,2013-08-15 14:56:00,
2013-08-15 11:01:00,70.6,50.5,30.07,NW,310,2.0,8.0,49,0.00,,,0.02,WeatherCatV1.15B25,2013-08-15 15:01:00,
2013-08-15 11:06:00,70.7,50.6,30.07,WNW,296,2.0,2.0,49,0.00,,,0.02,WeatherCatV1.15B25,2013-08-15 15:06:00,
2013-08-15 11:11:00,71.0,50.9,30.07,NW,306,2.0,4.0,49,0.00,,,0.02,WeatherCatV1.15B25,2013-08-15 15:11:00,
2013-08-15 11:16:00,71.6,50.9,30.07,NW,307,0.0,3.0,48,0.00,,,0.02,WeatherCatV1.15B25,2013-08-15 15:16:00,
2013-08-15 11:21:00,71.9,51.1,30.07,WNW,282,2.0,2.0,48,0.00,,,0.02,WeatherCatV1.15B25,2013-08-15 15:21:00,
2013-08-15 11:26:00,72.0,50.7,30.07,North,4,2.0,4.0,47,0.00,,,0.02,WeatherCatV1.15B25,2013-08-15 15:26:00,
2013-08-15 11:31:00,72.1,49.6,30.07,West,268,0.0,8.0,45,0.00,,,0.02,WeatherCatV1.15B25,2013-08-15 15:31:00,
2013-08-15 11:36:00,72.0,50.1,30.07,North,354,2.0,4.0,46,0.00,,,0.02,WeatherCatV1.15B25,2013-08-15 15:36:00,
2013-08-15 11:41:00,72.5,50.5,30.07,East,85,0.0,2.0,46,0.00,,,0.02,WeatherCatV1.15B25,2013-08-15 15:41:00,
2013-08-15 11:46:00,72.5,49.3,30.07,WNW,285,1.0,9.0,44,0.00,,,0.02,WeatherCatV1.15B25,2013-08-15 15:46:00,
2013-08-15 11:51:00,72.1,49.0,30.06,NW,324,2.0,8.0,44,0.00,,,0.02,WeatherCatV1.15B25,2013-08-15 15:51:00,
2013-08-15 11:56:00,72.2,50.3,30.06,North,0,2.0,4.0,46,0.00,,,0.02,WeatherCatV1.15B25,2013-08-15 15:56:00,
2013-08-15 12:01:00,72.5,49.9,30.06,NW,304,5.0,7.0,45,0.00,,,0.02,WeatherCatV1.15B25,2013-08-15 16:01:00,
2013-08-15 12:07:00,72.4,48.6,30.06,North,1,1.0,3.0,43,0.00,,,0.02,WeatherCatV1.15B25,2013-08-15 16:07:00,
2013-08-15 12:12:00,73.2,50.6,30.06,WNW,295,5.0,5.0,45,0.00,,,0.02,WeatherCatV1.15B25,2013-08-15 16:12:00,
2013-08-15 12:17:00,73.1,49.9,30.06,NNW,343,1.0,5.0,44,0.00,,,0.02,WeatherCatV1.15B25,2013-08-15 16:17:00,
2013-08-15 12:22:00,73.3,49.4,30.06,WNW,295,0.0,3.0,43,0.00,,,0.02,WeatherCatV1.15B25,2013-08-15 16:22:00,
2013-08-15 12:27:00,73.2,49.3,30.06,NNE,20,1.0,5.0,43,0.00,,,0.02,WeatherCatV1.15B25,2013-08-15 16:27:00,
2013-08-15 12:32:00,72.9,49.7,30.06,NW,307,5.0,5.0,44,0.00,,,0.02,WeatherCatV1.15B25,2013-08-15 16:32:00,
2013-08-15 12:37:00,72.4,48.0,30.05,WNW,302,2.0,2.0,42,0.00,,,0.02,WeatherCatV1.15B25,2013-08-15 16:37:00,
2013-08-15 12:42:00,72.3,48.5,30.05,WNW,290,3.0,5.0,43,0.00,,,0.02,WeatherCatV1.15B25,2013-08-15 16:42:00,
2013-08-15 12:47:00,73.0,50.4,30.05,East,85,1.0,3.0,45,0.00,,,0.02,WeatherCatV1.15B25,2013-08-15 16:47:00,
2013-08-15 12:52:00,73.2,50.6,30.05,NNW,335,2.0,2.0,45,0.00,,,0.02,WeatherCatV1.15B25,2013-08-15 16:52:00,
2013-08-15 12:57:00,73.6,49.1,30.05,West,276,4.0,6.0,42,0.00,,,0.02,WeatherCatV1.15B25,2013-08-15 16:57:00,
2013-08-15 13:02:00,73.8,49.3,30.05,North,352,2.0,5.0,42,0.00,,,0.02,WeatherCatV1.15B25,2013-08-15 17:02:00,
2013-08-15 13:07:00,74.1,50.8,30.05,NW,326,1.0,2.0,44,0.00,,,0.02,WeatherCatV1.15B25,2013-08-15 17:07:00,
2013-08-15 13:12:00,73.9,49.3,30.05,West,278,4.0,5.0,42,0.00,,,0.02,WeatherCatV1.15B25,2013-08-15 17:12:00,
2013-08-15 13:17:00,73.8,50.5,30.05,NNW,334,1.0,4.0,44,0.00,,,0.02,WeatherCatV1.15B25,2013-08-15 17:17:00,
2013-08-15 13:22:00,73.8,49.3,30.04,NNE,12,1.0,6.0,42,0.00,,,0.02,WeatherCatV1.15B25,2013-08-15 17:22:00,
2013-08-15 13:27:00,73.8,48.6,30.04,NNW,341,3.0,8.0,41,0.00,,,0.02,WeatherCatV1.15B25,2013-08-15 17:27:00,
2013-08-15 13:32:00,74.4,49.1,30.04,NW,325,1.0,5.0,41,0.00,,,0.02,WeatherCatV1.15B25,2013-08-15 17:32:00,
2013-08-15 13:37:00,74.3,49.1,30.04,NE,34,0.0,1.0,41,0.00,,,0.02,WeatherCatV1.15B25,2013-08-15 17:37:00,
2013-08-15 13:43:00,74.5,51.7,30.04,NNW,327,2.0,7.0,45,0.00,,,0.02,WeatherCatV1.15B25,2013-08-15 17:43:00,
2013-08-15 13:48:00,75.0,50.3,30.04,North,9,2.0,2.0,42,0.00,,,0.02,WeatherCatV1.15B25,2013-08-15 17:48:00,
2013-08-15 13:53:00,75.4,49.4,30.04,NW,306,1.0,8.0,40,0.00,,,0.02,WeatherCatV1.15B25,2013-08-15 17:53:00,
2013-08-15 13:58:00,75.2,49.9,30.04,NNW,340,2.0,4.0,41,0.00,,,0.02,WeatherCatV1.15B25,2013-08-15 17:58:00,
2013-08-15 14:03:00,74.1,48.9,30.04,West,262,2.0,5.0,41,0.00,,,0.02,WeatherCatV1.15B25,2013-08-15 18:03:00,
2013-08-15 14:08:00,74.4,49.1,30.04,NNW,347,3.0,4.0,41,0.00,,,0.02,WeatherCatV1.15B25,2013-08-15 18:08:00,
2013-08-15 14:13:00,75.0,49.7,30.04,NNW,342,1.0,5.0,41,0.00,,,0.02,WeatherCatV1.15B25,2013-08-15 18:13:00,
2013-08-15 14:19:00,75.3,51.2,30.03,NE,42,0.0,7.0,43,0.00,,,0.02,WeatherCatV1.15B25,2013-08-15 18:19:00,
2013-08-15 14:24:00,75.6,50.2,30.04,WSW,254,4.0,7.0,41,0.00,,,0.02,WeatherCatV1.15B25,2013-08-15 18:24:00,
2013-08-15 14:28:00,75.7,49.6,30.03,NE,35,1.0,3.0,40,0.00,,,0.02,WeatherCatV1.15B25,2013-08-15 18:28:00,
2013-08-15 14:33:00,75.8,50.4,30.03,SSW,208,3.0,6.0,41,0.00,,,0.02,WeatherCatV1.15B25,2013-08-15 18:33:00,
2013-08-15 14:39:00,76.1,50.0,30.03,West,276,1.0,5.0,40,0.00,,,0.02,WeatherCatV1.15B25,2013-08-15 18:39:00,
2013-08-15 14:44:00,75.9,52.4,30.03,NE,44,2.0,4.0,44,0.00,,,0.02,WeatherCatV1.15B25,2013-08-15 18:44:00,
2013-08-15 14:49:00,75.2,49.9,30.03,NNW,338,2.0,4.0,41,0.00,,,0.02,WeatherCatV1.15B25,2013-08-15 18:49:00,
2013-08-15 14:54:00,74.7,51.3,30.03,NE,39,1.0,5.0,44,0.00,,,0.02,WeatherCatV1.15B25,2013-08-15 18:54:00,
2013-08-15 14:59:00,75.5,50.8,30.03,SSW,212,0.0,2.0,42,0.00,,,0.02,WeatherCatV1.15B25,2013-08-15 18:59:00,
2013-08-15 15:04:00,76.0,49.9,30.03,WNW,289,3.0,6.0,40,0.00,,,0.02,WeatherCatV1.15B25,2013-08-15 19:04:00,
2013-08-15 15:09:00,75.3,50.6,30.03,NW,307,1.0,6.0,42,0.00,,,0.02,WeatherCatV1.15B25,2013-08-15 19:09:00,
2013-08-15 15:14:00,75.5,51.4,30.03,WNW,297,1.0,6.0,43,0.00,,,0.02,WeatherCatV1.15B25,2013-08-15 19:14:00,
2013-08-15 15:19:00,75.7,51.6,30.03,WNW,297,1.0,11.0,43,0.00,,,0.02,WeatherCatV1.15B25,2013-08-15 19:19:00,
2013-08-15 15:25:00,75.9,49.8,30.03,WNW,299,3.0,7.0,40,0.00,,,0.02,WeatherCatV1.15B25,2013-08-15 19:25:00,
2013-08-15 15:30:00,75.8,51.1,30.02,NNW,328,2.0,8.0,42,0.00,,,0.02,WeatherCatV1.15B25,2013-08-15 19:30:00,
2013-08-15 15:35:00,75.9,51.1,30.02,NW,307,3.0,5.0,42,0.00,,,0.02,WeatherCatV1.15B25,2013-08-15 19:35:00,
2013-08-15 15:40:00,75.8,51.1,30.02,NNW,330,1.0,3.0,42,0.00,,,0.02,WeatherCatV1.15B25,2013-08-15 19:40:00,
2013-08-15 15:45:00,75.8,51.7,30.02,NW,321,3.0,7.0,43,0.00,,,0.02,WeatherCatV1.15B25,2013-08-15 19:45:00,
2013-08-15 15:50:00,75.8,51.1,30.02,West,281,5.0,8.0,42,0.00,,,0.02,WeatherCatV1.15B25,2013-08-15 19:50:00,
2013-08-15 15:55:00,75.8,51.1,30.02,NW,322,3.0,8.0,42,0.00,,,0.02,WeatherCatV1.15B25,2013-08-15 19:55:00,
2013-08-15 16:00:00,75.8,51.7,30.02,West,275,2.0,9.0,43,0.00,,,0.02,WeatherCatV1.15B25,2013-08-15 20:00:00,
2013-08-15 16:05:00,75.6,50.9,30.02,WNW,288,6.0,7.0,42,0.00,,,0.02,WeatherCatV1.15B25,2013-08-15 20:05:00,
2013-08-15 16:10:00,75.3,51.2,30.02,NNW,347,1.0,5.0,43,0.00,,,0.02,WeatherCatV1.15B25,2013-08-15 20:10:00,
2013-08-15 16:15:00,74.8,51.4,30.02,WNW,295,1.0,1.0,44,0.00,,,0.02,WeatherCatV1.15B25,2013-08-15 20:15:00,
2013-08-15 16:20:00,75.4,52.0,30.02,WNW,293,2.0,2.0,44,0.00,,,0.02,WeatherCatV1.15B25,2013-08-15 20:20:00,
2013-08-15 16:25:00,75.3,51.9,30.02,WNW,282,3.0,6.0,44,0.00,,,0.02,WeatherCatV1.15B25,2013-08-15 20:25:00,
2013-08-15 16:30:00,75.2,51.1,30.02,NW,319,2.0,3.0,43,0.00,,,0.02,WeatherCatV1.15B25,2013-08-15 20:30:00,
2013-08-15 16:35:00,75.4,51.3,30.02,NNW,340,0.0,5.0,43,0.00,,,0.02,WeatherCatV1.15B25,2013-08-15 20:35:00,
2013-08-15 16:40:00,75.6,51.5,30.02,NW,319,1.0,9.0,43,0.00,,,0.02,WeatherCatV1.15B25,2013-08-15 20:40:00,
2013-08-15 16:45:00,75.1,51.7,30.02,North,349,0.0,5.0,44,0.00,,,0.02,WeatherCatV1.15B25,2013-08-15 20:45:00,
2013-08-15 16:50:00,74.6,50.6,30.02,NW,315,2.0,3.0,43,0.00,,,0.02,WeatherCatV1.15B25,2013-08-15 20:50:00,
2013-08-15 16:55:00,74.2,50.9,30.02,West,278,0.0,3.0,44,0.00,,,0.02,WeatherCatV1.15B25,2013-08-15 20:55:00,
2013-08-15 17:00:00,74.0,51.3,30.02,NNW,330,0.0,2.0,45,0.00,,,0.02,WeatherCatV1.15B25,2013-08-15 21:00:00,
2013-08-15 17:06:00,74.4,51.7,30.02,WNW,300,1.0,3.0,45,0.00,,,0.02,WeatherCatV1.15B25,2013-08-15 21:06:00,
2013-08-15 17:11:00,75.0,52.2,30.02,WNW,302,1.0,8.0,45,0.00,,,0.02,WeatherCatV1.15B25,2013-08-15 21:11:00,
2013-08-15 17:16:00,75.5,52.0,30.02,South,189,0.0,1.0,44,0.00,,,0.02,WeatherCatV1.15B25,2013-08-15 21:16:00,
2013-08-15 17:21:00,75.6,50.9,30.02,WNW,288,1.0,6.0,42,0.00,,,0.02,WeatherCatV1.15B25,2013-08-15 21:21:00,
2013-08-15 17:26:00,75.8,51.1,30.02,NW,321,1.0,4.0,42,0.00,,,0.02,WeatherCatV1.15B25,2013-08-15 21:26:00,
2013-08-15 17:31:00,75.5,50.8,30.02,NNW,336,2.0,4.0,42,0.00,,,0.02,WeatherCatV1.15B25,2013-08-15 21:31:00,
2013-08-15 17:36:00,74.6,50.0,30.02,West,269,1.0,6.0,42,0.00,,,0.02,WeatherCatV1.15B25,2013-08-15 21:36:00,
2013-08-15 17:41:00,74.4,50.4,30.02,WNW,297,2.0,4.0,43,0.00,,,0.02,WeatherCatV1.15B25,2013-08-15 21:41:00,
2013-08-15 17:46:00,74.8,50.2,30.02,WNW,286,3.0,4.0,42,0.00,,,0.02,WeatherCatV1.15B25,2013-08-15 21:46:00,
2013-08-15 17:51:00,74.8,50.8,30.02,NW,316,1.0,2.0,43,0.00,,,0.02,WeatherCatV1.15B25,2013-08-15 21:51:00,
2013-08-15 17:56:00,75.2,51.1,30.02,West,276,4.0,5.0,43,0.00,,,0.02,WeatherCatV1.15B25,2013-08-15 21:56:00,
2013-08-15 18:01:00,75.2,50.5,30.02,NNW,334,3.0,6.0,42,0.00,,,0.02,WeatherCatV1.15B25,2013-08-15 22:01:00,
2013-08-15 18:07:00,75.1,50.4,30.02,NW,304,4.0,5.0,42,0.00,,,0.02,WeatherCatV1.15B25,2013-08-15 22:07:00,
2013-08-15 18:12:00,74.9,51.5,30.02,West,278,1.0,1.0,44,0.00,,,0.02,WeatherCatV1.15B25,2013-08-15 22:12:00,
2013-08-15 18:17:00,74.9,52.1,30.02,NNW,335,1.0,4.0,45,0.00,,,0.02,WeatherCatV1.15B25,2013-08-15 22:17:00,
2013-08-15 18:22:00,74.8,51.4,30.02,West,263,1.0,2.0,44,0.00,,,0.02,WeatherCatV1.15B25,2013-08-15 22:22:00,
2013-08-15 18:27:00,74.2,50.9,30.03,North,4,0.0,2.0,44,0.00,,,0.02,WeatherCatV1.15B25,2013-08-15 22:27:00,
2013-08-15 18:32:00,73.8,50.5,30.03,NW,318,1.0,5.0,44,0.00,,,0.02,WeatherCatV1.15B25,2013-08-15 22:32:00,
2013-08-15 18:37:00,73.4,50.8,30.03,NW,307,0.0,2.0,45,0.00,,,0.02,WeatherCatV1.15B25,2013-08-15 22:37:00,
2013-08-15 18:42:00,73.3,51.3,30.03,ENE,74,0.0,1.0,46,0.00,,,0.02,WeatherCatV1.15B25,2013-08-15 22:42:00,
2013-08-15 18:47:00,73.3,50.7,30.03,SW,215,1.0,4.0,45,0.00,,,0.02,WeatherCatV1.15B25,2013-08-15 22:47:00,
2013-08-15 18:52:00,73.4,50.8,30.03,WNW,283,0.0,3.0,45,0.00,,,0.02,WeatherCatV1.15B25,2013-08-15 22:52:00,
2013-08-15 18:57:00,73.3,51.3,30.03,NNW,337,1.0,2.0,46,0.00,,,0.02,WeatherCatV1.15B25,2013-08-15 22:57:00,
2013-08-15 19:03:00,73.1,51.1,30.03,NE,52,0.0,1.0,46,0.00,,,0.02,WeatherCatV1.15B25,2013-08-15 23:03:00,
2013-08-15 19:08:00,72.9,50.9,30.03,NW,321,0.0,1.0,46,0.00,,,0.02,WeatherCatV1.15B25,2013-08-15 23:08:00,
2013-08-15 19:13:00,72.7,51.3,30.04,West,274,1.0,2.0,47,0.00,,,0.02,WeatherCatV1.15B25,2013-08-15 23:13:00,
2013-08-15 19:18:00,72.4,51.6,30.04,West,277,0.0,0.0,48,0.00,,,0.02,WeatherCatV1.15B25,2013-08-15 23:18:00,
2013-08-15 19:23:00,72.0,51.2,30.04,NNW,345,2.0,3.0,48,0.00,,,0.02,WeatherCatV1.15B25,2013-08-15 23:23:00,
2013-08-15 19:28:00,71.7,52.1,30.04,NNW,338,1.0,3.0,50,0.00,,,0.02,WeatherCatV1.15B25,2013-08-15 23:28:00,
2013-08-15 19:33:00,71.4,51.8,30.04,NW,315,0.0,0.0,50,0.00,,,0.02,WeatherCatV1.15B25,2013-08-15 23:33:00,
2013-08-15 19:38:00,71.2,52.1,30.05,West,265,0.0,0.0,51,0.00,,,0.02,WeatherCatV1.15B25,2013-08-15 23:38:00,
2013-08-15 19:43:00,70.8,51.8,30.05,West,264,0.0,1.0,51,0.00,,,0.02,WeatherCatV1.15B25,2013-08-15 23:43:00,
2013-08-15 19:48:00,70.4,52.4,30.05,West,264,0.0,0.0,53,0.00,,,0.02,WeatherCatV1.15B25,2013-08-15 23:48:00,
2013-08-15 19:53:00,69.9,53.0,30.05,WNW,293,0.0,0.0,55,0.00,,,0.02,WeatherCatV1.15B25,2013-08-15 23:53:00,
2013-08-15 19:58:00,69.4,52.5,30.06,WNW,293,0.0,0.0,55,0.00,,,0.02,WeatherCatV1.15B25,2013-08-15 23:58:00,
2013-08-15 20:03:00,69.0,52.1,30.06,WSW,258,0.0,1.0,55,0.00,,,0.02,WeatherCatV1.15B25,2013-08-16 00:03:00,
2013-08-15 20:08:00,68.8,52.9,30.06,WSW,258,0.0,0.0,57,0.00,,,0.02,WeatherCatV1.15B25,2013-08-16 00:08:00,
2013-08-15 20:13:00,68.6,52.7,30.06,West,271,0.0,0.0,57,0.00,,,0.02,WeatherCatV1.15B25,2013-08-16 00:13:00,
2013-08-15 20:18:00,68.3,52.9,30.07,West,272,0.0,0.0,58,0.00,,,0.02,WeatherCatV1.15B25,2013-08-16 00:18:00,
2013-08-15 20:23:00,67.8,53.4,30.07,West,271,0.0,0.0,60,0.00,,,0.02,WeatherCatV1.15B25,2013-08-16 00:23:00,
2013-08-15 20:28:00,67.2,52.8,30.07,West,271,0.0,0.0,60,0.00,,,0.02,WeatherCatV1.15B25,2013-08-16 00:28:00,
2013-08-15 20:33:00,66.9,53.4,30.07,West,271,0.0,1.0,62,0.00,,,0.02,WeatherCatV1.15B25,2013-08-16 00:33:00,
2013-08-15 20:38:00,66.6,52.7,30.07,West,281,0.0,1.0,61,0.00,,,0.02,WeatherCatV1.15B25,2013-08-16 00:38:00,
2013-08-15 20:43:00,66.6,53.2,30.07,West,281,0.0,0.0,62,0.00,,,0.02,WeatherCatV1.15B25,2013-08-16 00:43:00,
2013-08-15 20:48:00,66.3,53.3,30.07,West,281,0.0,0.0,63,0.00,,,0.02,WeatherCatV1.15B25,2013-08-16 00:48:00,
2013-08-15 20:53:00,66.0,53.5,30.07,West,281,0.0,0.0,64,0.00,,,0.02,WeatherCatV1.15B25,2013-08-16 00:53:00,
2013-08-15 20:58:00,65.7,53.6,30.08,West,281,0.0,0.0,65,0.00,,,0.02,WeatherCatV1.15B25,2013-08-16 00:58:00,
2013-08-15 21:03:00,65.4,53.3,30.08,West,280,0.0,1.0,65,0.00,,,0.02,WeatherCatV1.15B25,2013-08-16 01:03:00,
2013-08-15 21:08:00,65.4,53.7,30.08,West,280,0.0,0.0,66,0.00,,,0.02,WeatherCatV1.15B25,2013-08-16 01:08:00,
2013-08-15 21:13:00,65.3,53.6,30.09,West,280,0.0,1.0,66,0.00,,,0.02,WeatherCatV1.15B25,2013-08-16 01:13:00,
2013-08-15 21:18:00,65.3,53.6,30.09,WNW,300,0.0,0.0,66,0.00,,,0.02,WeatherCatV1.15B25,2013-08-16 01:18:00,
2013-08-15 21:23:00,65.3,53.6,30.09,WNW,282,0.0,0.0,66,0.00,,,0.02,WeatherCatV1.15B25,2013-08-16 01:23:00,
2013-08-15 21:28:00,65.3,53.6,30.09,WNW,282,0.0,1.0,66,0.00,,,0.02,WeatherCatV1.15B25,2013-08-16 01:28:00,
2013-08-15 21:33:00,65.2,53.5,30.09,SW,232,0.0,0.0,66,0.00,,,0.02,WeatherCatV1.15B25,2013-08-16 01:33:00,
2013-08-15 21:39:00,65.0,53.4,30.09,SW,232,0.0,0.0,66,0.00,,,0.02,WeatherCatV1.15B25,2013-08-16 01:39:00,
2013-08-15 21:44:00,64.8,54.0,30.09,SW,232,0.0,0.0,68,0.00,,,0.02,WeatherCatV1.15B25,2013-08-16 01:44:00,
2013-08-15 21:49:00,64.5,54.1,30.10,SW,232,0.0,0.0,69,0.00,,,0.02,WeatherCatV1.15B25,2013-08-16 01:49:00,
2013-08-15 21:54:00,64.3,53.9,30.10,SW,232,0.0,0.0,69,0.00,,,0.02,WeatherCatV1.15B25,2013-08-16 01:54:00,
2013-08-15 21:59:00,64.1,54.1,30.10,SW,232,0.0,0.0,70,0.00,,,0.02,WeatherCatV1.15B25,2013-08-16 01:59:00,
2013-08-15 22:04:00,63.9,53.9,30.10,SW,232,0.0,0.0,70,0.00,,,0.02,WeatherCatV1.15B25,2013-08-16 02:04:00,
2013-08-15 22:09:00,63.7,54.1,30.10,SW,232,0.0,0.0,71,0.00,,,0.02,WeatherCatV1.15B25,2013-08-16 02:09:00,
2013-08-15 22:14:00,63.4,53.8,30.10,SW,232,0.0,0.0,71,0.00,,,0.02,WeatherCatV1.15B25,2013-08-16 02:14:00,
2013-08-15 22:19:00,63.1,53.9,30.10,SW,232,0.0,0.0,72,0.00,,,0.02,WeatherCatV1.15B25,2013-08-16 02:19:00,
2013-08-15 22:24:00,62.8,53.6,30.10,SW,232,0.0,0.0,72,0.00,,,0.02,WeatherCatV1.15B25,2013-08-16 02:24:00,
2013-08-15 22:29:00,62.6,53.8,30.10,SW,232,0.0,0.0,73,0.00,,,0.02,WeatherCatV1.15B25,2013-08-16 02:29:00,
2013-08-15 22:34:00,62.4,53.6,30.11,SW,232,0.0,0.0,73,0.00,,,0.02,WeatherCatV1.15B25,2013-08-16 02:34:00,
2013-08-15 22:39:00,62.2,53.4,30.11,SW,232,0.0,0.0,73,0.00,,,0.02,WeatherCatV1.15B25,2013-08-16 02:39:00,
2013-08-15 22:44:00,62.0,53.6,30.11,SW,232,0.0,1.0,74,0.00,,,0.02,WeatherCatV1.15B25,2013-08-16 02:44:00,
2013-08-15 22:49:00,61.7,53.3,30.11,SW,232,0.0,1.0,74,0.00,,,0.02,WeatherCatV1.15B25,2013-08-16 02:49:00,
2013-08-15 22:54:00,61.6,53.6,30.11,SW,232,0.0,0.0,75,0.00,,,0.02,WeatherCatV1.15B25,2013-08-16 02:54:00,
2013-08-15 22:59:00,61.4,53.4,30.11,SW,232,0.0,0.0,75,0.00,,,0.02,WeatherCatV1.15B25,2013-08-16 02:59:00,
2013-08-15 23:04:00,61.2,53.2,30.11,SW,232,0.0,0.0,75,0.00,,,0.02,WeatherCatV1.15B25,2013-08-16 03:04:00,
2013-08-15 23:09:00,61.1,53.5,30.11,SW,232,0.0,0.0,76,0.00,,,0.02,WeatherCatV1.15B25,2013-08-16 03:09:00,
2013-08-15 23:14:00,61.0,53.4,30.11,SW,232,0.0,0.0,76,0.00,,,0.02,WeatherCatV1.15B25,2013-08-16 03:14:00,
2013-08-15 23:19:00,60.8,53.5,30.10,SW,232,0.0,0.0,77,0.00,,,0.02,WeatherCatV1.15B25,2013-08-16 03:19:00,
2013-08-15 23:24:00,60.6,53.3,30.11,SW,232,0.0,0.0,77,0.00,,,0.02,WeatherCatV1.15B25,2013-08-16 03:24:00,
2013-08-15 23:29:00,60.4,53.2,30.11,SW,232,0.0,0.0,77,0.00,,,0.02,WeatherCatV1.15B25,2013-08-16 03:29:00,
2013-08-15 23:34:00,60.3,53.4,30.11,SW,232,0.0,1.0,78,0.00,,,0.02,WeatherCatV1.15B25,2013-08-16 03:34:00,
2013-08-15 23:39:00,60.1,53.2,30.10,SW,232,0.0,0.0,78,0.00,,,0.02,WeatherCatV1.15B25,2013-08-16 03:39:00,
2013-08-15 23:44:00,59.9,53.0,30.11,SW,232,0.0,0.0,78,0.00,,,0.02,WeatherCatV1.15B25,2013-08-16 03:44:00,
2013-08-15 23:49:00,59.7,53.2,30.11,SW,232,0.0,0.0,79,0.00,,,0.02,WeatherCatV1.15B25,2013-08-16 03:49:00,
2013-08-15 23:54:00,59.5,53.0,30.11,SW,232,0.0,0.0,79,0.00,,,0.02,WeatherCatV1.15B25,2013-08-16 03:54:00,
2013-08-15 23:59:00,59.3,52.8,30.11,SW,232,0.0,0.0,79,0.00,,,0.02,WeatherCatV1.15B25,2013-08-16 03:59:00,